| time (UTC) | temp F | wind direction | speed MPH | gust MPH | rain 1hr in | rain 24hr in | rain mn in | humidity % | barometer mb |
| 20260504044658 | 60 | 150 | 3.0 | 14.0 | 0.00 | 0.00 | 0.00 | 39 | 995.4 |
| 20260504043113 | 60 | 190 | 6.0 | 14.0 | 0.00 | 0.00 | 0.00 | 40 | 995.6 |
| 20260504041554 | 60 | 169 | 5.0 | 12.0 | 0.00 | 0.00 | 0.00 | 41 | 995.9 |
| 20260504040042 | 60 | 217 | 5.0 | 13.0 | 0.00 | 0.00 | 0.00 | 43 | 996.3 |
| 20260504034542 | 60 | 207 | 5.0 | 11.0 | 0.00 | 0.00 | 0.00 | 43 | 996.6 |
| 20260504033032 | 60 | 236 | 5.0 | 11.0 | 0.00 | 0.00 | 0.00 | 43 | 997.0 |
| 20260504031529 | 60 | 201 | 5.0 | 13.0 | 0.00 | 0.00 | 0.00 | 42 | 997.5 |
| 20260504030029 | 61 | 187 | 5.0 | 12.0 | 0.00 | 0.00 | 0.00 | 41 | 997.7 |
| 20260504024522 | 61 | 248 | 5.0 | 9.0 | 0.00 | 0.00 | 0.00 | 40 | 998.0 |
| 20260504023019 | 62 | 231 | 3.0 | 8.0 | 0.00 | 0.00 | 0.00 | 39 | 998.2 |
| 20260504021516 | 62 | 211 | 2.0 | 10.0 | 0.00 | 0.00 | 0.00 | 39 | 998.4 |
| 20260504020002 | 63 | 266 | 2.0 | 9.0 | 0.00 | 0.00 | 0.00 | 38 | 998.7 |
| 20260504014607 | 63 | 235 | 2.0 | 7.0 | 0.00 | 0.00 | 0.00 | 38 | 999.1 |
| 20260504013056 | 64 | 162 | 2.0 | 7.0 | 0.00 | 0.00 | 0.00 | 36 | 999.3 |
| 20260504011552 | 65 | 261 | 2.0 | 6.0 | 0.00 | 0.00 | 0.00 | 35 | 999.6 |
| 20260504010056 | 65 | 221 | 1.0 | 6.0 | 0.00 | 0.00 | 0.00 | 34 | 999.9 |
| 20260504004547 | 66 | 231 | 1.0 | 8.0 | 0.00 | 0.00 | 0.00 | 34 | 1000.1 |
| 20260504003043 | 66 | 162 | 1.0 | 9.0 | 0.00 | 0.00 | 0.00 | 33 | 1000.3 |
| 20260504001541 | 67 | 243 | 5.0 | 9.0 | 0.00 | 0.00 | 0.00 | 32 | 1000.5 |
| 20260504000021 | 67 | 302 | 2.0 | 9.0 | 0.00 | 0.00 | 0.00 | 31 | 1000.7 |
| 20260503234521 | 67 | 295 | 3.0 | 8.0 | 0.00 | 0.00 | 0.00 | 31 | 1000.9 |
| 20260503233110 | 68 | 309 | 2.0 | 8.0 | 0.00 | 0.00 | 0.00 | 30 | 1001.2 |
| 20260503231558 | 68 | 297 | 3.0 | 10.0 | 0.00 | 0.00 | 0.00 | 29 | 1001.5 |
| 20260503230103 | 68 | 297 | 4.0 | 9.0 | 0.00 | 0.00 | 0.00 | 28 | 1001.8 |
| 20260503224545 | 68 | 117 | 2.0 | 10.0 | 0.00 | 0.00 | 0.00 | 29 | 1002.0 |
| 20260503223100 | 68 | 295 | 3.0 | 9.0 | 0.00 | 0.00 | 0.00 | 28 | 1002.1 |
| 20260503221547 | 67 | 266 | 2.0 | 9.0 | 0.00 | 0.00 | 0.00 | 28 | 1002.3 |
| 20260503220039 | 68 | 295 | 4.0 | 8.0 | 0.00 | 0.00 | 0.00 | 28 | 1002.3 |
| 20260503214547 | 67 | 293 | 3.0 | 9.0 | 0.00 | 0.00 | 0.00 | 30 | 1002.5 |
| 20260503213035 | 66 | 70 | 4.0 | 9.0 | 0.00 | 0.00 | 0.00 | 29 | 1002.6 |
| 20260503211530 | 66 | 291 | 4.0 | 10.0 | 0.00 | 0.00 | 0.00 | 30 | 1003.0 |
| 20260503210018 | 66 | 295 | 4.0 | 11.0 | 0.00 | 0.00 | 0.00 | 30 | 1003.6 |
| 20260503204524 | 66 | 307 | 2.0 | 11.0 | 0.00 | 0.00 | 0.00 | 32 | 1003.9 |
| 20260503203014 | 66 | 323 | 5.0 | 10.0 | 0.00 | 0.00 | 0.00 | 31 | 1004.1 |
| 20260503201510 | 65 | 330 | 6.0 | 10.0 | 0.00 | 0.00 | 0.00 | 31 | 1004.4 |
| 20260503200008 | 65 | 266 | 2.0 | 9.0 | 0.00 | 0.00 | 0.00 | 33 | 1004.6 |
| 20260503194507 | 64 | 166 | 3.0 | 12.0 | 0.00 | 0.00 | 0.00 | 33 | 1004.9 |
| 20260503193007 | 64 | 352 | 3.0 | 11.0 | 0.00 | 0.00 | 0.00 | 33 | 1005.0 |
| 20260503191504 | 63 | 308 | 5.0 | 9.0 | 0.00 | 0.00 | 0.00 | 32 | 1005.3 |
| 20260503190050 | 63 | 312 | 2.0 | 6.0 | 0.00 | 0.00 | 0.00 | 33 | 1005.4 |
| 20260503184548 | 62 | 322 | 4.0 | 9.0 | 0.00 | 0.00 | 0.00 | 34 | 1005.7 |
| 20260503183054 | 62 | 22 | 6.0 | 10.0 | 0.00 | 0.00 | 0.00 | 32 | 1006.1 |
| 20260503181558 | 62 | 343 | 1.0 | 8.0 | 0.00 | 0.00 | 0.00 | 35 | 1006.2 |
| 20260503180050 | 61 | 320 | 3.0 | 10.0 | 0.00 | 0.00 | 0.00 | 34 | 1006.4 |
| 20260503174552 | 61 | 6 | 4.0 | 12.0 | 0.00 | 0.00 | 0.00 | 34 | 1006.8 |
| 20260503173044 | 61 | 321 | 4.0 | 10.0 | 0.00 | 0.00 | 0.00 | 35 | 1006.9 |
| 20260503171543 | 60 | 315 | 3.0 | 11.0 | 0.00 | 0.00 | 0.00 | 35 | 1006.9 |
| 20260503081533 | 47 | 314 | 2.0 | 5.0 | 0.00 | 0.00 | 0.00 | 68 | 1004.5 |